Regional Weather Roundup
Issued by NWS Newport/Morehead, NC

Current Version | Previous Version | Text Only | Print | Product List | Glossary On
Versions: 1 2 3 4 5 6 7 8 9 10 11 12 13 14 15 16 17 18 19 20 21 22 23 24 25 26 27 28 29 30 31 32 33 34 35 36 37 38 39 40 41 42 43 44 45 46 47 48 49 50
048 ASUS42 KMHX 180713 RWRMHX WEATHER ROUNDUP FOR EASTERN NORTH CAROLINA NATIONAL WEATHER SERVICE NEWPORT/MOREHEAD CITY NC 200 AM EST THU JAN 18 2018 NOTE: "FAIR" INDICATES FEW OR NO CLOUDS BELOW 12,000 FEET WITH NO SIGNIFICANT WEATHER AND/OR OBSTRUCTIONS TO VISIBILITY NCZ015>017-031-032-045>047-102-103-180800- NORTH COAST CITY SKY/WX TMP DP RH WIND PRES REMARKS EDENTON MIX PCPN 24 22 91 N10 30.12F WCI 14 ELIZABETH CITY FOG 24 24 100 N25G31 30.07F VSB 1 WCI 8 KITTY HAWK CLOUDY N/A N/A N/A N13G23 30.05F MANTEO SNOW 27 26 96 N14 30.08R VSB 1/2 WCI 15 $$ NCZ045>047-081-094-103-104-180800- CENTRAL COAST CITY SKY/WX TMP DP RH WIND PRES REMARKS FRISCO FLURRIES 30 29 96 N12G25 30.02R $$ NCZ095-097-098-100-101-180800- SOUTHERN COAST CITY SKY/WX TMP DP RH WIND PRES REMARKS BEAUFORT LGT SNOW 26 23 88 N20 30.12R FOG WCI 12 CEDAR ISLAND NOT AVBL JACKSONVILLE LGT SNOW 25 22 88 NW18G26 30.17R FOG WCI 11 PINEY ISLAND NOT AVBL WILMINGTON CLOUDY 27 23 85 NW17 30.18S WCI 14 $$ NCZ011>013-027>030-043-044-078>080-089-090>093-098-180800- COASTAL PLAIN CITY SKY/WX TMP DP RH WIND PRES REMARKS AHOSKIE CLOUDY 22 13 67 N7 30.17R CLINTON FAIR 26 22 82 CALM 30.22F ELIZABETHTOWN NOT AVBL GOLDSBORO CLOUDY 25 16 68 NW9 30.18F GREENVILLE FLURRIES 25 18 74 N9 30.19S HAVELOCK NOT AVBL KENANSVILLE FLURRIES 25 16 68 N10 30.20F WCI 15 KINSTON FLURRIES 24 18 75 NW14G23 30.19S WCI 12 NEW BERN LGT SNOW 23 19 85 N15G22 30.16R FOG WCI 10 RICHLANDS LGT SNOW 24 21 88 VRB7 30.18R FOG ROCKY MOUNT CLOUDY 23 17 78 NW10 30.20F WCI 12 WASHINGTON LGT SNOW 22 19 88 N9 30.16F WHITEVILLE CLOUDY 28 21 74 NW3 30.24R $$ AMZ130-135-150-152-154-156-158-170-250-252-270-ANZ085-086-088-633-658-670-180800- MARINE OBSERVATIONS STATION/POSITION TIME TEMP WIND PRES WAVE SWELL AIR SEA DIR/SP/G HT/PER HT/PER (UTC) (F) (DEG/KT/KT) (MB) (FT/S) (FT/S) CHESAPEAKE LIGHT NOT AVBL 64 E VA BEACH 0650 37 56 350/ 31/ 39 1014.5 10/ 7 5/11 DUCK 0636 27 38 350/ 34/ 40 1015.7 2 E DUCK 0630 40 N/A 10/ 7 2/11 OREGON INLET 0636 28 40 340/ 19/ 30 1017.2 13E OREGON INLT 0648 43 N/A 11/ 7 8/ 7 HATTERAS CG 0636 30 42 340/ 30/ 37 1016.2 DIAMOND BUOY 0650 39 71 320/ 31/ 41 1016.4 10/ 8 5/10 CAPE LOOKOUT 0700 340/ 16/ 18 1019.6 BEAUFORT LAB 0636 26 45 340/ 12/ 18 1019.5 30 SE NEW RVR IN 0608 34 59 360/ 17/ 27 1019.4 30 SE NEW RVR IN 0630 60 N/A 7/ 6 2/11 27 SE WRIGHTSVLE 0608 34 55 360/ 25/ 37 1020.6 5 SE WRIGHTSVLE 0608 31 47 340/ 21 1020.6 225 S CAPE HAT 0650 63 70 280/ 31/ 39 1013.2 10/11 5/11 41 SE CHARLESTON 0650 38 68 310/ 23/ 35 1023.4 8/ 6 2/10 $$

USA.gov is the U.S. government's official web portal to all federal, state and local government web resources and services.